Redmond, OR

4:33 AM PDT on September 29, 2016 (GMT -0700)
Roberts Field Airport

Weather History for KRDM - August, 2014

Change the Weather History Date:

Thursday, August 14, 2014

  Actual Average Record
Temperature  
Mean Temperature 62 °F 66 °F  
Max Temperature 72 °F 86 °F 101 °F (1998)
Min Temperature 51 °F 46 °F 36 °F (1974)
Degree Days  
Heating Degree Days 3 2  
Month to date heating degree days 4 25  
Since 1 June heating degree days 258 311  
Since 1 July heating degree days 35 94  
Cooling Degree Days 0 3  
Month to date cooling degree days 77 48  
Year to date cooling degree days 271 174  
Since 1 June cooling degree days 271 169  
Growing Degree Days 10 (Base 50)    
Moisture  
Dew Point 51 °F    
Average Humidity 69    
Maximum Humidity 93    
Minimum Humidity 44    
Precipitation  
Precipitation 0.25 in 0.01 in 0.25 in (1968)
Month to date precipitation 0.90 0.22  
Year to date precipitation 4.94 5.45  
Sea Level Pressure  
Sea Level Pressure 30.00 in    
Wind  
Wind Speed 4 mph (SW)    
Max Wind Speed 12 mph    
Max Gust Speed 13 mph    
Visibility 10 miles    
Events Rain    
T = Trace of Precipitation, MM = Missing Value Source: NWS Daily Summary

Daily Weather History Graph

Daily Weather History Graph

Search for Another Location

Airport or City:

Trip Planner

Search our weather history database for the weather conditions in past years. The results will help you decide how hot, cold, wet, or windy it might be!

Date:

Astronomy

Aug. 14, 2014 Rise Set
Actual Time 6:06 AM PDT 8:10 PM PDT
Civil Twilight 5:35 AM PDT 8:42 PM PDT
Nautical Twilight 4:56 AM PDT 9:20 PM PDT
Astronomical Twilight 4:13 AM PDT 10:03 PM PDT
Moon 10:23 PM PDT (8/14) 11:01 AM PDT (8/14)
Length of Visible Light 15h 06m
Length of Day
14h 03m
Waning Gibbous, 78% of the Moon is Illuminated
Aug 14
Waning Gibbous
Aug 17
Last Quarter
Aug 25
New
Sep 2
First Quarter
Sep 8
Full

Hourly Weather History & Observations

Time (PDT) Temp. Dew Point Humidity Pressure Visibility Wind Dir Wind Speed Gust Speed Precip Events Conditions
12:56 AM 54.0 °F 50.0 °F 86% 30.00 in 10.0 mi Calm Calm - N/A   Clear
1:56 AM 54.0 °F 48.9 °F 83% 29.99 in 10.0 mi SSW 4.6 mph - N/A   Mostly Cloudy
3:56 AM 52.0 °F 48.0 °F 86% 29.99 in 10.0 mi South 3.5 mph - N/A   Scattered Clouds
4:56 AM 52.0 °F 48.9 °F 89% 30.00 in 10.0 mi South 3.5 mph - N/A   Mostly Cloudy
5:56 AM 53.1 °F 48.9 °F 86% 30.02 in 10.0 mi Calm Calm - 0.00 in Rain Light Rain
6:56 AM 52.0 °F 48.9 °F 89% 30.01 in 9.0 mi SSE 4.6 mph - 0.01 in Rain Light Rain
7:56 AM 54.0 °F 50.0 °F 86% 30.02 in 10.0 mi ENE 3.5 mph - 0.00 in Rain Light Rain
8:56 AM 55.9 °F 51.1 °F 84% 30.02 in 10.0 mi East 5.8 mph - 0.00 in   Partly Cloudy
9:56 AM 59.0 °F 52.0 °F 78% 30.02 in 10.0 mi ENE 4.6 mph - N/A   Partly Cloudy
10:56 AM 64.9 °F 50.0 °F 58% 30.00 in 10.0 mi East 4.6 mph - N/A   Partly Cloudy
11:56 AM 66.9 °F 48.9 °F 52% 29.99 in 10.0 mi SE 9.2 mph - N/A   Overcast
12:56 PM 69.1 °F 46.0 °F 44% 29.97 in 10.0 mi Variable 3.5 mph - N/A   Scattered Clouds
1:56 PM 69.1 °F 46.9 °F 45% 29.96 in 10.0 mi North 5.8 mph - N/A   Overcast
2:14 PM 63.0 °F 53.1 °F 70% 30.02 in 1.8 mi Variable 3.5 mph - 0.08 in Rain Rain
2:21 PM 62.1 °F 54.0 °F 75% 30.03 in 10.0 mi WSW 6.9 mph - 0.14 in Rain Light Rain
2:56 PM 62.1 °F 54.0 °F 75% 29.98 in 10.0 mi North 8.1 mph - 0.22 in Rain Light Rain
3:56 PM 64.0 °F 52.0 °F 65% 29.97 in 10.0 mi Calm Calm - 0.00 in Rain Light Rain
4:56 PM 64.0 °F 53.1 °F 67% 29.98 in 10.0 mi NNW 8.1 mph - 0.00 in   Overcast
5:56 PM 63.0 °F 57.0 °F 81% 29.98 in 10.0 mi NW 3.5 mph - 0.01 in Rain Light Rain
6:56 PM 63.0 °F 55.9 °F 78% 29.98 in 10.0 mi WSW 5.8 mph - 0.01 in   Mostly Cloudy
7:56 PM 60.1 °F 55.0 °F 83% 29.99 in 10.0 mi WSW 5.8 mph - N/A   Overcast
8:56 PM 60.1 °F 53.1 °F 78% 30.00 in 10.0 mi WNW 10.4 mph - N/A   Overcast
9:56 PM 59.0 °F 54.0 °F 83% 30.00 in 10.0 mi Calm Calm - 0.00 in Rain Light Rain
10:56 PM 57.0 °F 54.0 °F 89% 29.99 in 10.0 mi SSW 4.6 mph - 0.00 in   Mostly Cloudy
11:56 PM 55.9 °F 53.1 °F 90% 30.00 in 10.0 mi SW 4.6 mph - N/A   Mostly Cloudy